TimeCST,TemperatureF,Dew PointF,Humidity,Sea Level PressureIn,VisibilityMPH,Wind Direction,Wind SpeedMPH,Gust SpeedMPH,PrecipitationIn,Events,Conditions,WindDirDegrees,DateUTC
12:53 AM,33.1,21.9,64,30.35,10.0,NNW,5.8,-,N/A,,Clear,340,2013-01-17 06:53:00
1:53 AM,35.1,21.9,59,30.37,10.0,NNW,10.4,-,N/A,,Clear,330,2013-01-17 07:53:00
2:53 AM,30.9,21.0,67,30.38,10.0,NNW,9.2,-,N/A,,Clear,340,2013-01-17 08:53:00
3:53 AM,28.9,19.9,69,30.41,10.0,WSW,6.9,-,N/A,,Clear,250,2013-01-17 09:53:00
4:53 AM,30.0,19.9,66,30.41,10.0,WNW,6.9,-,N/A,,Clear,290,2013-01-17 10:53:00
5:53 AM,32.0,21.0,64,30.43,10.0,NNW,6.9,-,N/A,,Clear,330,2013-01-17 11:53:00
6:53 AM,28.0,19.9,72,30.46,10.0,Calm,Calm,-,N/A,,Clear,0,2013-01-17 12:53:00
7:53 AM,26.1,19.0,75,30.50,10.0,WSW,8.1,-,N/A,,Clear,250,2013-01-17 13:53:00
8:53 AM,32.0,21.9,66,30.51,10.0,WNW,3.5,-,N/A,,Clear,290,2013-01-17 14:53:00
9:53 AM,37.0,21.9,54,30.54,10.0,WNW,8.1,-,N/A,,Clear,290,2013-01-17 15:53:00
11:53 AM,46.9,24.1,41,30.51,10.0,Calm,Calm,-,N/A,,Clear,0,2013-01-17 17:53:00
12:53 PM,48.9,24.1,38,30.47,10.0,Calm,Calm,-,N/A,,Clear,0,2013-01-17 18:53:00
1:53 PM,51.1,23.0,33,30.42,10.0,Calm,Calm,-,N/A,,Clear,0,2013-01-17 19:53:00
2:53 PM,53.1,21.9,30,30.40,10.0,SSW,8.1,-,N/A,,Clear,200,2013-01-17 20:53:00
3:53 PM,53.1,23.0,31,30.40,10.0,South,10.4,-,N/A,,Clear,190,2013-01-17 21:53:00
4:53 PM,52.0,21.9,31,30.40,10.0,South,9.2,-,N/A,,Clear,170,2013-01-17 22:53:00
5:53 PM,46.0,21.9,39,30.41,10.0,South,5.8,-,N/A,,Clear,180,2013-01-17 23:53:00
6:53 PM,41.0,21.9,47,30.43,10.0,South,9.2,-,N/A,,Clear,190,2013-01-18 00:53:00
7:53 PM,34.0,21.9,61,30.45,10.0,SSW,8.1,-,N/A,,Clear,200,2013-01-18 01:53:00
8:53 PM,36.0,24.1,62,30.43,10.0,South,10.4,-,N/A,,Clear,190,2013-01-18 02:53:00
9:53 PM,30.9,21.9,69,30.41,10.0,SSW,8.1,-,N/A,,Clear,200,2013-01-18 03:53:00
10:53 PM,30.9,21.9,69,30.38,10.0,SSW,5.8,-,N/A,,Clear,200,2013-01-18 04:53:00
11:53 PM,37.9,24.1,57,30.33,10.0,SSW,17.3,-,N/A,,Clear,200,2013-01-18 05:53:00